Location: Svitavy
(49.7500°N, 16.4667°E)
Time: 16:07:33
(UTC+01:00)

ISS - Pass Details

Date: 23 January 2020
Orbit: 415 x 422 km, 51.6° (Epoch: 26 February)

Event Time Altitude Azimuth Distance (km) Brightness Sun altitude
Rises 17:31:45 0° 206° (SSW) 2,367 0.8 -9.4°
Reaches altitude 10° 17:34:13 10° 189° (S) 1,506 -0.6 -9.8°
Maximum altitude 17:36:43 19° 141° (SE) 1,064 -1.9 -10.2°
Enters shadow 17:38:39 13° 101° (E) 1,347 -1.7 -10.5°
